Location: Shepherdstown, WV
(39.4326°N, 77.8042°W)
Time: 06:24:59
(UTC-04:00)

Vanguard 1 - Pass Details

Date: 06 August 2021
Orbit: 652 x 3831 km, 34.3° (Epoch: 24 September)

Event Time Altitude Azimuth Distance (km) Brightness Sun altitude
Rises 08:18:09 0° 206° (SSW) 3,436 12.6 22.1°
Reaches altitude 10° 08:22:41 10° 172° (S) 2,169 12.0 22.9°
Maximum altitude 08:24:11 11° 153° (SSE) 2,014 12.1 23.2°
Drops below altitude 10° 08:25:37 10° 134° (SE) 2,062 12.5 23.5°
Sets 08:29:33 0° 98° (E) 2,987 13.9 24.3°
